Theta_e
315 317 321 319 319 319 323 328 325 325 325 322 320 318 315 316 316 317 319 319 316 318 318 315 315 314 316 317 316 316 318 321 322 321 322 327 324 323 324 322 323 323 328 335 338 340 342 343 343 343 344 343 344 344 344 343 342 342 342 341 340 339 337 336 337 337 338 338 338 338 337 337 337 338 337 337 337 337 337 338 338 339 339 339 339 339 338 335 332 330 331 331 331 331 332 332 331
318 318 322 319 319 319 324 328 327 326 325 317 315 317 314 315 317 320 322 321 319 315 315 316 316 316 317 316 315 316 317 317 319 318 319 321 320 324 323 322 324 323 327 334 337 340 341 342 342 343 344 344 344 344 344 342 342 342 341 341 340 340 337 336 337 337 338 338 337 336 336 337 336 336 336 335 337 337 336 337 337 338 339 339 339 339 339 337 333 331 331 330 329 330 332 334 334
318 320 321 319 319 320 329 327 323 326 323 316 315 320 316 315 320 322 322 321 319 314 315 315 316 318 317 318 317 317 319 318 316 318 321 318 320 323 322 323 324 323 326 331 336 338 341 341 341 343 343 344 343 343 344 342 342 342 342 341 340 340 337 336 337 336 337 337 336 335 334 336 335 335 335 334 336 336 336 337 337 338 338 338 338 338 337 335 331 329 327 322 321 322 324 328 332
320 322 318 319 320 324 344 336 327 329 321 318 317 320 322 319 320 322 321 319 315 313 316 317 317 316 315 320 318 316 319 319 315 318 324 320 321 322 322 324 323 323 326 331 335 336 339 339 341 342 342 343 342 343 343 342 343 342 342 341 340 341 337 335 336 336 336 337 335 335 334 335 335 334 334 334 335 335 336 336 337 337 337 338 337 337 333 331 329 328 326 321 320 322 320 319 324
319 321 316 318 324 324 338 330 327 329 318 321 316 316 325 323 321 321 321 317 314 316 318 318 318 315 314 319 318 318 320 319 315 314 319 321 321 321 323 324 323 323 325 329 333 335 336 337 340 340 342 343 342 342 343 343 342 342 342 342 340 340 338 335 336 336 336 336 334 333 333 334 333 333 333 334 334 335 335 336 337 337 337 337 336 334 331 330 330 329 327 324 325 324 323 315 312
317 319 316 316 318 317 325 322 320 323 319 323 317 315 321 319 320 319 319 317 316 316 315 316 318 316 316 318 315 317 318 317 317 315 317 321 322 322 323 323 323 323 324 328 331 334 335 336 338 340 341 342 342 342 343 343 342 342 342 341 341 340 338 335 336 336 336 335 334 334 335 336 336 335 334 332 333 334 334 335 336 336 337 336 334 332 331 331 330 329 328 327 326 324 324 316 304
316 318 321 320 319 319 329 327 322 323 319 317 316 318 318 317 315 315 318 319 318 315 314 317 315 316 317 316 314 315 315 314 317 318 319 320 322 322 323 324 323 323 325 328 330 333 334 336 337 340 341 341 342 342 342 342 342 342 341 341 340 340 338 336 336 336 335 335 335 336 337 338 338 338 336 333 333 334 334 335 336 336 335 333 331 330 330 330 330 330 328 326 321 321 322 312 301
317 319 324 330 331 331 335 327 324 323 316 313 315 318 318 318 313 315 321 318 317 316 317 319 315 318 316 314 317 316 313 314 318 319 319 319 322 323 323 323 323 323 325 327 330 332 334 336 337 340 340 341 342 341 342 342 342 341 341 340 340 340 338 336 336 335 334 335 337 337 338 339 338 338 337 335 332 333 334 335 335 335 333 332 331 329 327 326 326 326 324 320 314 317 316 304 299
317 317 323 331 332 331 331 324 320 320 319 318 317 319 320 318 313 315 320 317 316 317 318 317 315 317 315 316 320 317 315 316 318 320 320 320 323 324 323 323 324 323 325 327 329 332 333 335 337 340 340 341 341 341 341 341 341 341 341 340 340 340 338 336 336 335 334 336 337 337 339 338 338 337 337 336 333 333 333 332 333 333 331 331 331 329 327 325 323 321 319 318 313 309 306 299 298
318 317 323 331 330 325 323 321 320 320 321 321 318 319 319 314 314 316 317 316 314 316 317 314 314 318 317 318 320 316 315 315 316 321 322 322 323 324 323 323 325 325 326 327 329 331 333 334 335 338 339 340 341 340 340 340 341 341 340 340 340 339 338 336 335 336 334 336 338 338 338 337 338 337 337 337 335 333 332 331 332 332 331 332 332 330 328 326 325 323 321 320 317 305 299 299 299
325 325 328 331 326 320 319 321 324 325 323 320 318 319 318 313 314 317 316 315 314 315 315 314 315 319 318 319 321 316 314 316 318 322 323 322 323 324 324 323 325 326 327 328 329 331 333 334 334 336 338 339 340 339 340 340 340 340 340 340 340 340 339 336 335 335 333 336 339 338 338 338 338 337 338 337 336 334 333 333 333 332 332 333 332 330 328 328 327 326 324 322 319 308 298 299 299
324 330 337 335 322 317 319 323 326 331 330 322 317 316 315 313 315 316 316 315 315 317 316 314 314 315 319 320 319 313 313 317 319 321 322 323 323 323 324 324 326 327 328 329 329 331 333 334 334 334 336 338 339 339 339 339 340 340 340 340 341 340 339 337 334 334 333 335 337 338 338 338 338 337 338 337 337 335 334 334 333 333 333 332 331 330 328 327 327 326 325 323 320 310 298 298 299
329 331 336 326 317 320 320 320 323 329 328 319 315 314 310 312 316 315 315 316 315 317 315 312 313 313 317 318 317 315 312 315 319 319 320 322 324 323 324 325 327 328 329 330 331 331 332 334 334 334 335 336 338 339 339 339 340 340 340 339 340 340 339 338 334 332 333 334 336 337 337 337 338 337 338 337 337 336 335 334 333 333 332 332 330 329 328 327 327 326 325 323 321 313 301 298 299
331 332 331 320 314 324 322 317 321 322 318 316 316 315 312 313 316 315 314 316 315 316 312 309 312 314 315 315 320 320 312 312 317 318 318 321 323 324 325 327 328 330 331 332 333 333 333 334 334 334 335 337 338 338 339 338 339 340 340 339 340 340 339 339 336 332 332 334 335 336 337 337 338 337 338 337 337 337 335 334 334 333 332 332 330 329 328 327 327 326 325 323 321 315 304 297 298
325 329 329 323 318 321 318 318 323 321 316 316 315 312 315 313 312 316 313 315 316 312 309 308 309 313 314 313 318 317 310 311 313 315 318 319 323 326 327 328 329 330 331 333 333 334 334 334 334 335 335 336 338 338 338 338 339 339 339 339 338 338 339 339 337 334 333 333 334 335 336 337 337 337 337 337 337 337 336 334 333 333 332 331 330 329 327 326 326 325 325 324 321 316 305 297 297
320 327 327 321 316 315 314 318 322 320 317 317 314 312 316 314 310 314 311 311 314 311 311 313 310 312 315 313 312 309 307 311 313 315 318 320 323 326 328 328 328 328 329 330 332 334 334 335 334 335 335 335 336 337 338 337 338 338 338 338 338 338 338 339 338 336 334 334 334 334 335 336 336 336 336 337 336 336 335 334 333 333 332 331 330 329 328 326 324 324 325 324 323 316 304 297 297
320 329 330 318 314 315 315 320 320 318 320 321 318 313 315 316 312 311 307 308 314 314 315 315 310 309 313 310 307 305 307 310 313 317 320 321 322 324 326 326 326 326 327 327 329 331 333 335 334 334 334 335 336 336 337 337 337 338 338 337 337 338 338 337 337 337 335 334 334 334 334 334 336 335 336 336 336 335 333 333 333 333 332 331 330 329 328 326 323 324 324 324 323 318 306 297 297
330 333 324 316 317 317 318 323 321 317 318 318 317 314 314 317 315 311 309 312 315 314 315 314 311 310 309 307 306 307 307 308 311 315 316 317 317 317 318 319 320 322 324 326 327 328 329 332 334 335 334 335 335 335 336 337 337 337 339 339 337 338 337 337 337 337 336 335 334 334 332 333 334 335 335 335 334 334 332 332 332 333 332 331 330 329 328 326 323 324 324 324 324 321 311 300 297
334 329 316 321 326 318 318 324 321 317 315 316 317 313 313 314 313 311 312 316 315 314 315 315 315 315 310 306 307 307 306 307 308 309 309 308 308 308 309 312 314 315 317 321 324 326 327 329 332 335 335 335 335 334 334 335 337 337 337 338 337 337 336 336 337 337 336 335 334 334 332 332 333 334 334 334 334 333 333 332 332 333 332 331 330 329 328 325 323 324 324 324 324 322 318 306 298
325 322 319 328 330 321 318 322 320 317 314 317 318 312 313 314 312 311 313 316 314 314 315 315 316 315 310 304 304 305 305 306 306 306 305 304 305 304 305 308 309 311 312 313 316 321 325 327 328 331 334 335 336 335 333 334 336 337 337 336 335 336 337 337 336 336 336 335 335 335 334 333 332 332 333 333 334 333 332 332 332 332 331 331 330 328 327 324 323 324 324 324 324 322 321 314 303
317 318 324 325 320 319 319 322 321 318 314 315 317 313 314 314 311 312 313 314 314 314 313 314 313 311 310 306 303 304 304 303 303 304 303 303 305 305 306 307 309 312 312 311 311 313 318 323 325 328 332 334 336 336 334 333 334 335 336 338 337 335 337 338 334 333 336 337 336 336 335 334 333 332 331 332 334 334 334 332 331 331 330 330 329 328 327 324 324 324 324 324 324 322 321 319 311
316 318 323 323 318 317 319 322 320 317 314 314 317 315 314 311 310 313 313 313 313 310 308 310 308 307 309 307 303 303 302 303 303 302 302 303 303 304 306 309 311 313 314 314 313 312 312 315 320 324 329 331 333 335 334 333 334 334 334 336 338 337 337 336 333 331 334 337 337 336 335 334 334 333 332 332 332 333 332 332 332 330 330 330 329 328 326 325 325 324 323 324 324 323 321 320 316
317 318 319 321 319 317 319 320 317 315 314 316 317 313 311 311 312 313 311 313 310 303 303 306 304 303 304 303 302 302 302 302 302 302 302 302 302 303 304 307 310 313 315 317 316 314 312 311 313 319 326 329 331 332 332 333 334 335 334 334 336 336 335 335 337 334 333 334 333 334 335 334 333 333 333 332 331 332 332 331 331 330 330 330 329 327 326 325 325 324 323 324 324 323 321 320 318
318 320 320 319 317 318 320 318 317 315 314 315 313 309 310 313 312 310 310 310 304 300 302 303 302 302 302 301 301 301 301 301 301 301 301 301 302 303 304 306 308 310 313 317 318 316 313 311 310 315 324 327 328 330 331 333 334 335 335 335 334 332 330 331 335 336 336 335 333 331 331 332 333 333 333 333 331 332 332 329 329 330 329 329 329 327 325 325 326 325 324 323 323 322 321 320 318
319 320 321 318 316 321 320 316 317 315 313 311 309 311 312 311 311 309 310 307 301 301 303 302 302 302 301 300 301 300 300 300 300 300 301 301 302 304 306 307 308 309 311 315 318 318 314 311 311 313 320 325 327 328 330 332 333 335 336 335 334 332 332 330 330 332 333 334 335 332 331 333 333 332 333 333 330 330 331 329 330 331 330 329 328 326 326 326 325 324 323 323 323 322 321 320 318
319 319 320 318 315 317 315 315 317 315 314 310 309 314 312 308 309 310 310 304 301 304 303 302 302 302 301 300 300 300 300 300 299 300 300 300 301 304 306 307 308 309 311 314 318 319 317 312 312 313 317 322 326 328 330 332 333 335 336 335 334 333 333 332 331 332 332 332 332 333 333 335 335 332 331 333 331 329 330 331 332 331 329 329 327 327 327 325 323 323 323 323 322 322 321 320 318
317 318 317 316 314 313 314 314 315 313 312 311 310 314 311 307 310 312 309 301 302 309 305 301 301 301 300 299 299 300 299 299 299 299 299 300 300 301 302 305 307 308 311 316 318 320 320 317 315 315 317 321 327 329 329 332 334 335 335 334 334 334 333 332 332 332 332 332 331 331 333 334 334 332 329 331 331 329 329 330 331 330 329 328 328 328 327 324 324 324 324 324 322 321 321 319 318
313 314 314 317 315 314 315 313 311 310 311 310 310 313 311 308 311 311 306 301 305 313 308 301 301 300 299 299 299 299 299 299 298 298 298 298 299 299 301 302 304 307 310 314 318 320 322 321 320 319 318 321 328 330 330 332 333 333 334 331 330 332 332 331 330 330 330 331 332 331 332 333 333 332 330 331 332 331 330 329 329 329 329 329 329 328 326 325 325 325 324 324 322 322 321 319 317
312 312 314 318 318 317 314 310 310 310 311 311 311 314 316 313 310 307 304 303 307 314 309 303 301 299 299 299 298 299 299 298 298 298 298 298 298 299 300 301 303 306 309 314 319 321 323 323 323 322 321 324 329 332 332 332 332 331 333 331 328 328 329 329 329 330 330 330 331 331 331 331 331 331 331 331 331 331 331 330 329 328 329 329 329 327 326 325 325 324 324 323 322 322 320 318 317
313 312 314 316 318 320 313 308 311 311 311 311 311 317 322 315 306 305 304 304 311 316 308 302 301 300 299 299 298 299 298 298 298 297 297 298 299 299 300 302 303 306 310 314 317 320 324 324 325 325 324 327 330 332 332 330 330 329 329 328 327 327 328 329 328 328 328 328 328 329 328 328 328 329 329 329 329 330 329 328 328 328 328 328 327 326 325 325 324 323 323 322 321 321 319 318 317
315 312 318 319 316 324 319 311 313 312 310 309 311 318 322 314 305 305 304 304 314 314 305 302 301 299 299 298 298 298 298 298 297 297 297 298 298 299 300 302 304 308 311 313 315 318 323 325 326 327 327 328 329 330 330 328 327 326 326 325 325 326 326 326 325 324 325 325 325 325 325 326 326 326 326 325 326 326 326 326 325 326 326 326 326 325 324 324 323 323 322 321 320 319 318 317 316
322 314 324 325 316 324 324 312 313 313 309 309 313 318 320 312 306 305 302 305 315 311 303 301 300 299 299 298 297 297 297 297 296 296 297 298 298 299 300 301 304 307 311 314 316 317 320 323 324 326 327 327 327 326 326 325 324 323 323 322 322 323 322 321 321 320 321 322 322 322 322 322 322 323 323 323 323 323 323 323 322 322 324 324 323 323 323 322 321 322 321 320 319 318 318 316 315
324 316 324 328 318 320 319 313 313 312 311 311 313 317 319 312 305 304 302 304 311 310 303 301 300 299 298 297 297 296 296 296 296 296 296 297 298 298 299 300 303 306 309 314 317 318 318 320 321 321 322 323 323 323 322 321 320 320 319 318 319 319 318 317 316 317 317 317 318 318 319 319 319 319 320 320 321 321 321 321 320 320 320 321 320 319 319 319 318 318 318 318 317 316 316 315 315
325 316 318 323 318 316 317 316 314 311 312 313 313 314 316 313 308 305 303 302 309 309 303 301 299 298 297 297 296 296 296 295 295 295 295 296 297 298 299 300 303 306 309 312 315 316 317 317 318 317 317 319 320 320 319 317 316 316 315 313 314 314 312 312 313 313 313 313 313 313 315 316 315 315 316 317 318 317 317 318 317 317 317 317 317 316 316 316 315 314 315 315 314 314 313 312 312
330 322 319 321 317 314 317 317 313 312 314 315 315 314 315 314 312 308 302 301 308 306 300 300 299 298 298 296 296 296 295 295 294 294 294 295 297 298 299 300 303 306 309 310 313 315 316 316 317 317 315 315 316 316 316 315 314 313 311 311 310 308 307 307 308 308 307 307 308 309 311 312 312 312 312 313 314 314 314 314 314 313 313 313 313 314 313 313 312 311 312 312 312 311 310 309 308
328 327 326 325 320 317 318 317 313 312 313 316 315 314 315 313 313 310 303 301 304 302 300 300 299 298 297 296 296 296 295 295 294 293 294 295 296 297 298 300 302 305 307 310 313 315 315 315 316 316 314 314 315 315 315 315 314 312 311 311 308 303 303 303 303 304 303 303 304 305 306 307 308 308 308 309 310 310 310 310 310 310 310 311 311 311 310 310 310 309 309 309 309 308 306 305 304
319 321 322 321 319 318 317 315 314 311 312 317 315 313 314 313 314 309 303 303 304 302 302 301 299 298 297 296 296 295 295 294 293 293 294 294 295 296 298 300 302 304 306 308 312 313 313 315 316 314 312 315 317 316 315 314 313 312 310 308 304 301 302 301 301 302 302 301 301 302 303 303 304 304 305 305 306 306 306 306 307 307 307 307 307 306 306 306 306 307 306 306 306 305 303 302 302
314 315 316 317 317 316 314 313 314 312 312 316 314 312 315 315 315 307 303 307 306 302 303 301 299 298 296 296 296 295 295 294 293 293 293 294 295 295 297 298 300 301 301 303 306 307 310 314 314 313 314 316 316 315 315 312 309 310 308 303 302 301 300 301 300 300 300 300 300 300 300 301 301 301 301 302 302 303 303 303 303 303 303 303 303 302 303 303 303 304 304 304 304 303 301 299 301
312 313 313 315 315 315 316 314 313 312 312 317 316 313 315 315 310 304 302 304 301 299 300 300 298 297 296 296 295 295 295 294 293 292 292 293 293 294 295 296 297 297 297 299 300 303 307 309 310 312 314 313 312 312 312 310 307 307 306 302 302 301 299 299 299 297 298 299 299 299 299 299 299 299 299 300 300 300 300 300 300 300 300 300 300 300 301 301 301 301 302 302 302 302 301 299 301
312 313 313 315 315 316 321 317 313 312 310 314 316 313 314 313 306 303 301 300 299 298 298 297 297 297 296 295 294 294 294 294 293 292 292 292 292 293 293 293 294 295 296 297 299 301 303 304 306 309 310 309 308 308 308 306 304 304 303 301 301 300 297 297 298 297 297 298 297 298 297 298 298 298 298 298 298 298 298 298 298 298 298 298 299 299 299 298 298 298 299 300 300 300 300 299 300
315 314 313 315 315 316 319 316 314 315 312 311 312 315 320 316 311 307 302 299 299 298 298 297 296 296 295 294 293 293 293 293 293 292 291 291 291 291 291 292 293 293 294 295 297 299 300 301 304 305 306 305 305 304 304 304 303 302 300 299 299 298 296 296 296 294 293 294 293 293 293 294 295 296 296 296 296 296 296 296 296 296 296 296 296 296 296 296 297 297 297 298 298 298 298 298 298
318 318 315 314 315 316 317 314 314 319 320 313 310 320 329 323 317 312 303 301 301 300 299 298 297 296 296 295 294 293 293 292 291 291 290 290 290 290 291 291 291 291 292 293 295 297 299 300 301 303 303 302 302 302 302 302 302 301 300 299 297 294 291 290 290 288 288 289 289 289 289 290 291 291 291 292 292 292 292 292 291 291 291 291 291 291 292 292 293 294 295 295 296 295 296 297 296
319 320 317 313 312 314 315 315 316 321 323 314 309 318 327 327 323 314 304 303 302 300 300 299 297 297 296 295 295 294 293 292 292 290 289 289 289 290 290 290 290 290 290 292 294 295 297 298 300 301 300 300 300 300 301 301 301 300 299 296 292 289 288 286 286 287 287 287 287 287 288 288 288 288 288 288 288 289 289 288 288 288 288 288 288 288 288 288 289 289 290 291 291 292 292 293 293
322 318 316 316 313 315 317 317 318 321 320 316 315 316 319 323 321 311 304 306 304 301 301 299 298 297 296 295 295 294 294 293 293 291 289 289 289 289 288 289 289 289 290 291 293 293 294 296 298 299 299 299 299 299 300 300 299 297 295 292 289 287 287 286 286 286 287 287 287 287 287 287 287 287 287 287 287 287 287 287 287 287 287 287 287 287 287 287 287 287 287 287 288 288 288 289 289
321 313 313 317 316 317 319 317 318 317 314 320 323 316 316 324 321 309 304 307 307 304 303 300 298 297 296 295 295 294 294 292 291 291 289 288 288 288 288 288 288 288 290 290 291 292 293 294 296 297 297 297 297 297 297 296 295 293 291 289 288 287 287 287 287 287 287 287 287 286 286 286 286 286 286 286 287 287 287 287 287 287 287 286 286 286 286 286 286 286 286 286 286 286 286 286 286
314 309 311 314 314 316 318 318 319 315 315 324 325 317 318 326 327 316 308 311 313 308 303 300 299 298 296 296 295 294 294 292 290 289 289 288 288 288 288 288 288 288 289 289 290 290 291 292 294 294 293 293 293 293 293 292 291 291 290 288 288 287 287 287 287 287 287 287 287 286 286 286 286 286 286 286 286 286 286 286 286 286 286 286 286 286 286 286 285 285 286 285 286 286 285 285 285
309 312 317 316 317 319 319 319 318 316 321 323 319 317 317 322 329 323 315 315 314 309 304 300 299 298 297 296 295 294 293 293 291 288 288 288 288 287 288 287 287 288 288 288 289 289 290 291 292 291 289 290 290 290 290 290 289 289 288 288 288 287 287 287 287 287 286 287 286 286 286 285 285 285 285 285 285 285 285 285 285 285 285 285 285 285 285 285 285 285 285 285 285 285 285 285 285
311 320 322 319 320 319 319 321 319 321 327 321 313 313 315 320 328 323 316 313 308 307 306 301 299 298 296 296 295 294 294 293 292 290 288 287 287 287 287 287 287 287 287 288 288 288 289 289 290 289 288 289 289 289 289 289 288 288 288 288 288 287 287 287 287 286 286 286 286 285 285 285 285 285 285 285 285 285 285 285 285 285 285 285 285 285 285 285 285 285 285 285 285 285 285 285 285
313 321 321 322 325 324 325 326 321 322 323 314 310 314 315 319 322 317 316 313 305 304 304 300 299 298 296 296 295 294 294 293 292 291 288 287 287 287 287 287 287 287 287 287 288 288 288 289 289 289 288 288 288 288 289 288 288 288 288 288 287 287 287 287 286 286 285 286 285 285 285 285 285 285 284 284 284 284 284 285 285 285 285 285 285 285 285 285 284 285 285 285 285 285 285 284 284
314 319 321 324 327 330 334 328 320 320 318 310 309 314 316 319 318 314 313 308 302 300 301 300 298 297 296 295 294 294 294 293 293 291 288 287 287 287 287 287 287 287 287 287 288 288 288 289 289 289 288 288 288 288 288 288 288 288 287 287 287 287 286 286 286 285 285 285 285 285 284 284 284 284 283 283 283 284 284 284 284 284 284 284 284 284 284 284 284 284 284 284 284 284 284 284 284
313 317 319 323 327 332 333 329 327 325 319 313 310 314 322 324 316 308 304 300 298 299 299 299 298 297 296 295 294 295 294 293 293 292 289 287 287 287 287 287 287 287 287 287 288 288 288 289 289 289 288 288 288 288 288 288 287 287 287 287 287 287 286 286 285 285 285 285 285 284 284 284 283 283 283 283 283 283 283 283 283 284 284 284 284 284 284 284 284 284 284 284 284 283 283 283 283
313 313 316 320 324 326 321 317 319 319 319 317 314 317 323 318 308 300 299 299 298 298 298 298 298 297 296 295 294 294 293 293 293 292 289 287 288 288 287 287 287 287 287 287 288 288 288 289 288 288 288 288 288 288 288 288 288 287 287 287 287 287 286 286 285 285 285 285 285 284 284 284 283 283 283 283 283 283 283 283 283 283 283 283 283 283 283 283 283 283 283 283 283 283 283 283 283
313 312 319 319 316 322 321 312 308 311 318 320 317 319 318 313 309 302 299 301 300 298 298 297 297 297 296 295 294 293 293 293 292 291 289 288 288 288 287 287 287 287 287 288 288 288 289 289 289 289 288 288 288 288 288 288 288 288 288 287 287 287 287 287 286 285 285 285 285 285 285 284 284 283 283 283 283 283 283 283 283 283 283 283 283 283 283 283 283 283 283 283 282 282 282 282 282
316 317 320 314 311 319 323 318 316 316 321 321 317 319 318 316 318 308 302 306 305 299 298 297 296 296 296 295 294 293 293 292 291 290 288 287 288 288 287 287 287 287 288 288 288 288 289 289 289 289 288 288 288 288 288 288 288 288 288 288 288 287 287 287 287 286 286 286 285 285 285 284 284 283 283 283 283 283 283 283 283 283 283 283 283 283 283 283 283 283 283 283 282 282 282 282 281
314 317 315 314 318 321 318 320 324 322 323 323 316 313 314 317 319 316 311 312 309 301 297 297 297 296 296 295 294 293 293 292 291 290 288 287 288 288 288 287 287 287 288 288 288 288 288 289 289 289 288 288 288 288 288 289 288 288 288 288 288 287 287 287 287 286 286 286 285 284 284 284 283 283 283 283 283 283 283 283 283 283 283 283 283 283 283 283 283 283 283 283 283 282 282 282 282
310 311 310 312 318 321 319 318 320 321 323 324 319 315 317 317 316 320 319 313 307 303 298 297 297 296 296 295 295 294 293 292 291 290 289 287 288 288 288 288 287 287 288 288 288 288 289 289 289 289 288 288 288 288 288 289 289 288 288 288 287 287 286 286 286 285 285 285 284 284 283 283 283 282 282 282 282 282 282 282 282 282 282 282 282 282 282 282 282 282 282 282 282 282 282 282 282
312 313 313 314 314 315 318 316 314 318 323 324 322 319 320 318 314 317 318 312 304 303 303 299 297 296 296 296 295 294 293 292 291 290 289 288 288 288 288 288 288 287 288 288 288 288 288 288 288 288 288 288 288 288 288 288 288 288 288 288 287 286 285 285 285 285 284 284 283 283 283 282 282 282 282 282 282 282 282 282 282 282 282 282 282 282 282 282 282 282 282 281 281 281 281 281 281
313 315 315 315 315 316 319 317 314 315 318 320 321 319 319 318 311 310 313 310 303 301 302 300 297 297 297 296 296 294 293 292 291 290 288 288 288 288 289 288 288 288 288 288 288 288 288 288 288 288 288 288 288 288 288 288 288 288 288 287 286 285 284 284 284 284 283 283 283 282 282 282 282 282 282 281 281 281 281 281 281 281 281 281 281 281 281 281 281 281 281 281 280 280 280 280 280
Wind_Speed
9 8 9 8 8 5 2 4 2 1 3 2 1 1 1 1 1 2 3 2 1 2 2 1 1 1 0 1 2 3 3 3 3 2 0 3 2 1 11 9 3 11 20 27 29 28 26 24 22 20 19 18 17 17 16 15 14 13 12 10 9 8 10 11 11 12 11 11 11 10 10 10 9 9 9 8 8 8 8 7 7 7 7 8 8 9 9 7 6 6 5 6 5 5 4 4 4
9 7 8 7 6 3 1 2 2 2 4 3 1 1 2 2 1 2 3 2 2 2 1 1 2 1 1 1 1 1 1 4 3 1 2 4 4 1 10 9 3 9 20 26 29 29 26 25 23 20 20 19 18 17 16 15 14 13 12 11 10 8 9 11 11 12 11 11 11 10 10 10 10 9 9 8 8 7 7 6 6 6 7 8 8 8 8 5 5 6 7 7 7 6 5 5 4
9 6 8 5 3 4 1 3 2 1 4 3 1 3 1 1 3 4 5 5 4 2 2 1 1 1 1 2 0 2 1 3 2 2 3 4 3 0 9 10 3 9 20 24 28 29 27 25 24 22 20 19 19 18 16 15 14 13 13 11 10 9 9 12 11 12 11 11 10 10 10 10 10 9 9 8 8 7 6 6 6 6 6 7 7 7 5 6 6 7 9 8 8 8 7 6 6
7 5 8 2 1 4 3 3 1 3 3 2 1 2 2 2 4 5 5 5 5 3 1 1 0 1 2 2 1 1 2 3 3 4 1 3 3 1 8 10 4 9 19 23 27 29 27 26 24 23 21 20 19 18 16 15 15 13 12 11 10 9 9 12 12 11 11 11 10 10 10 10 9 9 9 9 9 8 6 6 6 7 7 7 7 6 7 8 8 9 10 9 9 11 10 7 6
5 5 8 1 2 2 2 3 2 3 2 3 2 2 3 4 4 5 6 5 3 1 1 2 0 1 1 1 1 1 2 2 2 4 2 3 3 1 8 11 5 9 18 21 25 27 27 26 24 24 22 21 19 18 17 16 15 13 13 11 10 9 9 11 12 12 11 10 10 10 10 9 9 9 9 9 8 8 7 6 7 8 8 7 6 6 8 8 8 11 11 11 13 13 11 9 7
5 3 8 7 3 1 2 3 3 2 3 4 3 3 4 4 5 4 6 5 2 2 0 1 1 1 0 2 2 3 2 1 2 3 3 3 4 1 8 11 7 8 16 19 22 25 26 26 25 24 23 21 19 18 17 16 15 14 13 12 10 9 8 10 11 11 11 11 10 9 9 8 8 8 7 8 8 7 7 6 7 8 7 6 5 6 7 7 8 11 13 14 16 15 12 9 7
6 2 4 7 3 2 3 3 3 2 2 3 2 3 4 4 3 2 6 3 0 1 2 1 0 1 0 3 2 4 4 3 3 3 4 5 5 1 8 11 8 8 14 18 19 23 25 25 24 23 23 21 20 19 18 17 15 14 13 12 11 10 9 10 11 11 11 12 10 9 8 8 8 8 7 7 8 8 7 7 6 6 4 3 5 7 8 7 8 11 13 15 16 13 10 7 6
8 3 0 4 2 3 3 2 2 2 0 2 3 4 5 4 2 1 3 2 1 1 2 2 1 1 1 2 1 4 4 4 6 7 8 8 5 1 8 10 8 8 13 17 17 20 23 25 24 23 22 21 20 19 18 17 16 14 14 13 12 11 10 11 11 11 12 11 10 9 8 8 7 8 8 8 8 8 7 6 5 4 2 3 6 9 10 9 10 11 12 13 15 11 7 6 6
7 4 0 3 3 3 2 1 0 2 3 3 3 4 5 4 2 1 1 2 1 1 3 3 1 1 2 2 2 4 4 4 7 7 7 6 3 2 7 9 8 7 10 15 16 17 20 23 24 23 21 20 20 19 18 17 16 15 14 13 13 11 10 11 12 12 12 12 10 9 8 8 7 7 8 8 9 8 7 5 4 3 2 4 7 8 10 11 11 11 10 12 15 11 6 6 5
5 5 2 3 3 3 2 0 1 1 4 3 3 6 5 2 2 1 0 1 2 1 3 1 1 2 2 2 2 2 6 8 7 5 5 3 2 2 6 8 7 6 8 13 16 16 17 21 23 23 22 20 20 20 18 17 16 16 15 14 13 12 10 11 13 13 13 12 10 10 9 8 7 7 8 8 9 8 6 5 5 4 3 4 6 8 9 10 10 12 12 13 14 11 7 5 4
3 4 2 4 3 2 1 2 2 2 5 4 3 5 4 3 2 1 1 1 2 2 2 2 1 1 0 2 2 2 8 9 5 4 4 2 1 1 5 6 6 5 6 10 13 15 15 18 21 23 23 21 20 20 19 17 17 16 15 14 13 12 11 11 13 14 14 13 11 10 9 9 8 8 8 8 9 8 6 6 5 4 3 4 6 8 9 9 10 13 14 14 14 11 7 5 4
2 3 3 4 3 2 2 2 3 4 5 3 1 2 2 3 1 0 1 2 2 3 3 2 1 2 1 2 2 3 10 12 7 6 4 1 1 1 3 5 5 5 6 8 11 13 14 16 19 22 23 23 21 21 20 19 17 16 16 15 13 12 11 11 12 13 14 13 12 11 10 9 8 8 8 8 9 8 7 6 5 3 3 5 7 8 9 8 11 13 14 14 14 11 7 5 3
3 1 4 3 2 2 2 2 3 3 4 1 0 1 2 2 2 3 2 1 2 4 2 3 1 2 0 2 2 4 8 13 10 6 6 3 2 2 3 5 4 5 6 8 10 11 12 14 17 20 23 23 22 21 21 20 19 17 16 16 14 13 11 11 11 13 14 14 12 11 10 9 9 8 8 8 8 8 6 5 3 2 3 5 7 8 9 10 12 14 14 15 14 11 7 5 4
2 2 4 3 0 2 3 0 1 1 0 2 2 3 1 1 2 3 3 2 3 0 1 2 3 1 1 1 4 3 5 13 11 7 7 6 4 3 3 4 4 4 6 7 9 10 11 12 14 18 21 22 21 21 21 21 20 18 17 16 16 14 12 11 11 12 13 14 13 12 11 10 9 9 9 8 7 8 6 4 2 0 3 6 7 8 10 11 13 15 15 15 15 12 8 5 4
3 2 4 4 1 0 2 0 1 4 2 2 1 2 3 1 3 1 2 2 3 3 2 2 3 1 1 1 3 3 8 15 11 8 7 6 6 4 3 3 3 4 5 6 8 10 10 11 13 15 18 20 21 21 21 21 21 20 18 17 17 16 14 12 12 13 13 14 14 13 12 10 9 9 9 8 7 7 5 4 2 3 5 5 6 8 10 10 12 14 15 15 16 13 8 5 4
3 3 4 3 1 0 2 2 2 3 2 3 1 0 2 3 2 1 2 2 3 2 3 3 2 1 1 2 2 7 14 16 11 8 6 5 5 3 3 2 3 4 5 6 7 9 11 12 12 13 15 18 21 22 20 21 21 21 20 19 17 16 15 14 13 13 13 14 14 15 14 12 10 9 9 9 7 6 5 5 4 4 3 3 6 9 10 10 11 13 15 16 16 14 8 4 4
3 4 4 3 1 1 3 3 3 3 2 4 3 3 3 4 2 1 1 2 3 4 4 4 2 1 3 1 9 15 16 14 10 6 5 5 5 4 4 4 4 4 5 6 7 9 10 12 13 13 14 15 19 22 22 21 21 21 20 19 18 17 16 16 14 14 14 14 14 15 15 14 11 9 9 9 7 7 6 6 6 6 4 5 8 8 9 12 11 12 15 16 17 15 9 5 4
4 3 3 1 2 2 4 6 5 2 1 3 3 2 2 3 4 2 1 2 2 4 4 4 5 4 0 8 16 16 13 12 12 10 11 11 11 10 9 8 8 6 5 5 6 8 10 12 13 14 14 14 15 20 23 22 21 21 20 19 19 18 17 16 16 15 15 15 14 15 15 15 13 11 10 9 8 7 7 7 6 7 6 5 6 6 9 13 11 11 15 16 17 16 11 7 5
3 3 2 2 5 3 4 6 5 2 1 4 4 1 2 2 2 2 3 4 5 5 6 4 5 5 6 14 18 17 15 17 17 18 18 17 16 15 15 13 11 10 8 7 7 7 9 12 14 16 16 14 14 17 21 22 22 21 20 20 19 18 18 17 16 17 17 15 14 15 15 15 15 13 11 9 8 8 8 7 7 9 7 4 4 5 11 14 11 10 14 16 16 16 14 9 6
1 3 2 4 5 3 3 4 5 4 1 3 4 1 0 3 2 2 3 7 7 3 5 3 4 5 5 10 16 19 19 22 22 22 22 20 18 16 17 17 15 14 12 11 10 10 11 12 13 16 16 15 14 15 18 20 22 21 20 19 19 18 18 16 17 17 17 16 14 15 16 15 15 14 12 11 10 11 10 10 10 10 6 5 6 8 12 13 11 10 14 16 16 16 15 12 8
2 3 3 4 3 1 4 6 5 4 3 2 2 2 3 3 2 1 1 5 7 2 4 3 4 5 5 6 12 19 19 21 22 23 22 20 19 18 18 17 16 15 13 12 10 10 12 14 13 13 15 16 15 15 16 19 20 22 20 18 17 17 17 17 18 16 16 18 16 14 15 15 15 13 12 11 12 12 11 13 12 7 7 7 6 9 13 12 10 11 14 16 16 16 15 14 11
1 1 3 4 3 1 4 5 4 4 3 2 2 3 3 1 1 2 4 3 4 3 4 2 2 3 5 5 9 14 16 17 19 21 20 19 20 20 20 18 17 15 14 12 10 9 10 15 16 13 12 15 17 17 17 18 18 19 18 17 16 15 16 18 20 19 16 16 15 15 15 15 15 14 12 12 12 11 11 13 9 4 8 8 6 10 12 10 9 11 15 16 16 16 15 15 13
1 1 1 3 4 3 3 3 4 4 3 2 3 2 0 2 3 2 4 4 2 5 5 4 6 6 7 9 10 11 12 13 15 18 17 18 20 20 20 20 19 18 16 14 13 10 8 11 16 15 12 13 16 17 17 18 17 17 16 15 15 15 17 18 20 20 15 13 15 16 16 15 15 14 14 12 12 14 13 12 9 7 9 9 9 11 10 9 8 10 13 15 15 16 15 15 14
3 1 2 2 4 5 4 1 3 4 4 5 1 2 1 0 3 0 1 2 3 5 6 8 9 11 12 12 11 10 11 13 14 16 17 17 18 18 19 20 20 19 17 17 15 12 9 7 13 15 12 11 14 16 17 18 17 17 15 14 14 14 14 13 15 14 11 15 18 17 16 16 17 16 15 14 14 15 15 14 12 10 10 10 10 11 10 8 8 9 12 13 14 15 15 14 14
3 3 3 1 3 5 4 3 4 5 6 4 2 3 4 4 3 1 2 2 5 3 6 8 8 12 13 11 10 10 12 14 15 17 18 19 20 21 22 23 21 20 20 20 18 14 10 4 7 12 11 10 12 14 15 16 15 15 15 13 12 12 12 9 11 13 11 14 18 19 20 19 20 18 15 15 15 14 15 16 14 10 9 10 9 12 10 8 7 8 10 11 12 14 15 14 14
3 5 2 2 3 5 4 4 6 4 4 2 2 6 3 2 2 1 2 3 4 4 7 7 8 11 10 9 10 10 12 14 15 16 19 21 23 25 26 25 24 22 21 20 19 17 12 6 0 6 8 8 10 12 13 14 14 14 14 11 7 9 10 9 8 10 9 9 11 14 18 20 21 19 15 15 16 12 11 14 14 9 9 9 9 12 10 6 6 7 9 9 11 13 14 14 13
3 4 3 4 4 5 3 4 4 2 3 3 4 7 2 1 1 2 1 4 3 5 8 6 8 9 7 6 7 10 12 13 16 17 21 25 27 27 27 26 25 22 20 21 20 18 13 9 6 3 4 8 8 9 10 12 12 12 10 8 7 6 6 9 9 7 7 7 9 10 12 17 20 19 15 14 15 13 9 10 11 10 9 9 10 10 7 4 6 8 9 9 10 12 13 13 13
2 1 3 6 5 5 3 3 4 2 2 4 6 5 1 2 1 2 3 4 3 6 7 6 7 5 5 5 6 9 11 14 19 20 21 22 23 24 25 25 24 21 20 21 20 17 15 13 11 8 6 9 8 8 8 9 9 8 7 5 5 3 1 5 8 7 7 6 8 9 10 12 16 17 16 13 13 14 13 11 11 10 9 10 9 7 5 5 6 7 7 8 9 11 12 13 13
1 3 3 7 7 6 4 3 2 1 1 3 4 2 4 3 3 0 6 3 3 7 7 6 6 5 5 6 6 9 12 16 19 20 19 20 20 21 22 22 21 21 19 19 19 18 17 17 16 14 13 12 9 9 10 9 7 6 7 3 1 2 3 2 2 4 4 4 5 5 5 7 9 13 15 12 11 12 14 13 11 9 8 7 6 6 6 7 6 6 7 7 8 10 12 13 13
1 3 3 5 7 6 4 2 3 2 0 1 1 2 4 1 2 4 8 3 3 7 6 6 6 5 6 6 6 7 11 15 16 19 20 21 21 21 21 21 20 20 19 19 20 20 18 18 18 18 18 15 12 12 13 11 6 7 7 4 5 5 5 5 4 4 3 3 3 3 1 3 4 6 7 7 8 9 10 9 7 7 5 5 5 5 6 6 5 5 7 7 8 9 11 13 14
1 2 2 3 2 5 5 2 3 2 1 2 2 2 4 3 1 6 8 3 4 6 5 5 5 5 5 5 6 6 9 13 16 19 21 21 21 21 21 21 21 21 21 21 21 21 20 20 20 19 18 16 15 15 17 16 12 12 14 12 12 12 11 11 11 12 10 9 7 7 6 3 1 1 1 1 3 4 4 2 1 2 3 4 4 5 5 5 5 4 5 7 7 8 9 12 14
2 1 3 2 1 5 7 3 1 1 1 4 4 2 5 3 1 6 6 3 7 7 4 5 5 5 5 5 6 5 7 11 18 22 22 21 21 21 21 21 22 22 22 22 21 23 23 23 23 22 22 21 21 21 23 24 24 23 23 23 22 21 21 21 20 20 19 17 15 14 13 11 9 7 5 5 5 5 4 4 5 5 3 3 3 4 4 4 4 4 5 7 7 7 9 11 12
3 0 3 2 1 3 6 3 1 1 0 4 3 2 4 1 1 5 5 4 6 6 4 4 4 5 5 5 5 5 6 9 15 21 22 21 20 20 20 20 21 22 22 23 23 24 25 27 27 27 27 27 27 28 27 28 30 30 30 30 29 28 29 30 28 27 27 26 24 23 20 19 18 15 13 11 11 11 9 9 9 9 7 5 4 3 3 4 5 4 4 5 6 7 7 8 10
2 1 2 3 2 2 4 3 3 4 2 1 3 1 5 4 2 4 6 4 6 6 4 4 4 4 5 4 5 5 6 6 9 16 19 19 18 18 19 20 21 22 23 24 25 26 28 29 30 31 31 30 30 30 30 32 32 32 33 35 34 33 33 33 32 31 31 30 30 29 25 24 24 22 20 17 17 17 15 13 12 11 10 8 7 8 8 7 7 6 5 5 5 6 6 7 8
3 2 2 3 2 3 4 4 2 4 3 2 3 2 8 8 0 5 5 3 6 5 3 3 4 4 5 5 5 5 6 6 8 14 16 16 17 18 18 20 22 23 23 24 26 27 29 29 30 31 31 31 32 32 32 33 34 34 35 36 36 36 35 34 33 33 33 32 31 29 27 26 25 24 23 21 21 20 19 18 16 15 14 12 12 12 11 10 9 8 8 7 6 6 7 9 10
6 5 4 4 4 4 5 5 4 1 2 4 6 6 8 9 4 3 3 3 5 4 3 3 3 4 4 4 4 4 5 5 8 13 15 16 17 17 18 20 22 23 24 24 26 27 28 29 29 31 31 31 31 32 32 32 33 34 34 34 36 37 36 36 36 35 33 33 31 29 27 27 24 23 23 22 22 21 21 20 18 17 15 13 14 14 13 11 11 10 10 9 9 9 10 11 12
5 4 3 4 4 5 5 4 4 0 1 5 5 4 6 8 5 3 2 2 4 3 3 3 3 4 4 4 4 4 4 4 8 12 14 15 16 17 18 19 22 23 24 25 27 28 28 28 29 30 29 29 29 29 29 30 31 31 32 34 35 35 35 36 37 34 33 32 31 29 29 27 25 24 23 22 22 22 21 20 18 18 17 16 16 16 15 13 13 12 11 11 11 11 13 15 16
3 3 3 3 4 6 6 3 4 1 2 4 1 1 7 7 3 3 2 2 3 2 2 2 3 3 3 3 3 3 2 3 8 11 14 16 16 17 19 20 22 22 23 24 26 27 28 29 29 29 28 27 27 26 26 29 30 29 31 34 34 34 34 34 35 34 32 31 30 30 29 27 26 26 25 24 24 23 22 21 21 20 19 19 18 17 16 15 15 15 14 14 13 13 14 16 18
2 2 2 4 3 3 6 3 4 2 3 3 3 3 8 5 1 3 3 3 2 1 2 2 2 3 3 3 3 3 3 3 5 8 12 15 16 18 19 20 21 21 21 22 25 27 28 29 29 27 26 26 27 26 26 28 30 29 29 31 32 33 34 33 33 33 31 30 30 29 29 27 27 27 27 26 26 25 24 24 23 22 21 20 19 19 19 19 19 18 17 16 14 14 15 17 19
3 3 3 5 3 1 4 3 4 2 1 2 2 4 6 2 1 3 3 2 2 2 3 3 2 3 2 2 2 3 3 4 4 5 10 14 16 18 19 19 19 19 20 21 25 27 28 29 29 28 27 28 29 29 29 30 31 30 31 32 31 32 33 32 31 31 30 29 30 30 29 28 27 27 27 27 27 26 25 25 24 23 23 21 20 21 21 21 20 19 19 17 16 16 16 17 17
3 5 6 6 4 5 6 3 3 3 3 1 1 4 5 1 1 0 1 1 2 2 3 4 3 2 2 2 3 3 3 3 3 4 7 11 14 16 16 17 18 18 19 21 24 26 27 29 29 30 30 31 31 31 31 31 31 32 33 33 32 32 33 31 31 32 32 32 32 32 31 30 29 29 28 28 27 27 26 26 25 24 24 23 23 23 23 22 21 19 19 18 18 18 16 16 16
3 5 10 9 7 7 5 1 3 3 3 2 1 2 4 3 2 3 2 0 1 2 3 3 2 2 2 2 3 3 3 2 3 3 5 9 12 13 15 16 17 18 18 21 23 25 26 28 29 30 31 31 30 30 30 29 30 30 30 31 32 34 34 32 32 33 34 35 34 33 33 31 30 30 30 29 28 28 27 27 26 26 26 26 25 25 24 24 22 21 20 19 19 18 16 16 18
2 5 8 9 7 6 4 3 3 1 2 2 2 1 3 5 4 2 3 2 1 1 1 1 0 1 1 1 2 2 2 2 2 4 6 9 10 11 13 14 15 16 18 21 24 25 26 27 28 29 29 29 29 28 27 27 28 29 30 33 34 36 35 31 30 33 34 34 33 32 32 31 30 30 29 29 28 27 27 26 26 26 26 26 25 25 25 24 23 22 21 20 20 19 19 19 19
3 4 4 7 7 7 6 6 4 3 2 3 3 2 2 4 4 1 3 3 0 1 1 1 1 1 1 1 1 1 1 1 1 2 5 7 8 9 10 12 14 17 19 23 25 26 27 28 30 30 30 30 29 29 28 28 30 32 35 37 37 36 35 32 31 32 32 32 32 31 30 30 29 28 27 26 26 25 25 25 24 24 24 23 23 23 23 21 20 20 19 20 20 20 20 19 18
4 2 5 6 6 6 5 6 3 1 1 3 3 2 2 4 4 1 1 2 2 4 5 4 3 3 2 2 1 1 0 1 1 1 3 5 6 8 10 12 15 18 21 24 27 27 28 30 31 32 32 32 32 31 31 31 33 35 36 38 37 35 33 32 30 31 30 30 30 29 28 28 27 26 25 24 24 23 23 22 22 22 22 21 20 20 19 18 18 18 18 18 18 18 18 17 17
3 5 6 5 5 5 4 4 3 2 1 4 5 3 2 4 4 1 1 3 5 5 5 4 4 4 4 3 3 2 1 1 1 2 3 4 6 8 11 14 16 19 22 24 27 29 30 31 32 33 33 33 33 32 33 33 33 34 35 36 36 33 31 30 29 29 28 27 28 27 26 26 25 24 23 23 22 21 21 20 20 20 20 19 19 18 18 17 17 17 16 16 15 15 15 15 15
5 6 6 6 5 4 3 2 3 2 2 5 5 2 2 2 5 3 3 3 4 5 4 4 5 5 5 4 4 4 3 2 2 2 4 5 7 9 11 14 16 19 21 24 27 29 30 31 32 33 32 32 33 32 33 33 33 33 33 33 33 31 29 29 28 27 26 25 26 25 24 24 23 22 22 21 21 20 19 19 19 19 19 18 19 19 18 18 17 17 16 15 15 15 15 14 14
5 4 4 4 3 3 3 4 3 1 4 5 3 1 3 3 4 3 4 3 3 5 6 8 9 7 6 5 4 4 3 3 3 3 4 6 8 10 12 14 16 18 21 23 26 28 30 31 32 33 32 32 32 32 32 32 31 31 30 30 30 28 27 27 27 26 24 24 24 23 22 22 21 21 20 20 20 19 19 19 18 18 18 19 19 19 19 19 18 17 17 17 17 17 16 16 16
4 4 5 4 2 3 2 3 1 3 4 3 2 1 2 5 6 4 5 4 3 3 5 9 11 10 8 6 5 4 4 4 4 3 4 7 9 10 12 14 15 18 20 22 25 27 30 30 31 33 31 31 31 31 30 30 29 28 27 27 27 26 25 25 25 24 23 22 22 21 21 20 20 20 20 20 20 19 19 19 19 19 19 19 19 19 19 19 19 19 19 19 19 19 18 18 17
4 5 5 4 2 2 1 3 2 3 3 2 2 1 1 4 5 3 4 4 3 3 3 6 10 11 10 8 6 5 5 4 4 3 4 7 10 11 12 14 16 17 19 22 24 27 29 30 30 32 30 29 29 29 29 29 28 27 25 25 25 24 24 24 24 23 21 21 20 20 21 20 20 20 20 19 19 19 19 19 19 19 19 19 19 19 20 20 20 20 21 21 20 20 19 19 18
4 4 5 4 4 4 3 3 3 3 2 2 3 1 3 3 2 2 2 2 3 3 3 4 6 7 6 6 6 5 5 4 4 4 5 8 11 12 13 14 15 17 19 21 24 26 29 29 29 30 30 28 28 28 28 28 27 26 25 24 24 23 23 23 22 21 19 19 19 19 19 19 19 18 18 18 18 18 18 18 18 19 19 19 19 20 20 20 20 21 21 21 20 20 20 20 20
1 2 5 3 4 4 2 2 4 2 1 2 2 2 4 4 1 3 2 2 3 2 2 5 6 5 6 6 6 6 5 5 5 4 6 9 11 12 13 14 15 17 19 21 23 26 28 28 28 28 28 27 27 27 27 26 26 25 24 23 22 22 21 21 20 18 17 17 17 17 17 17 17 17 17 17 17 17 18 18 18 19 19 20 20 20 21 21 21 21 21 22 21 21 22 22 21
2 2 3 4 3 6 4 1 1 3 1 3 2 3 3 0 1 2 2 1 3 2 1 6 7 6 7 6 6 6 6 6 6 5 7 10 12 13 13 14 16 17 19 21 23 25 27 27 27 27 27 26 25 25 24 24 23 23 22 21 21 20 20 19 18 17 16 16 16 16 16 16 16 17 17 17 17 18 18 19 19 20 21 21 22 22 23 23 23 24 24 24 24 24 24 23 23
5 3 5 3 2 4 3 1 2 3 2 4 1 3 2 1 2 2 1 3 4 3 3 5 6 7 8 8 8 8 8 7 6 7 9 12 13 14 15 15 16 18 20 21 23 24 25 26 26 26 26 25 24 23 22 21 21 21 20 19 19 18 18 17 16 15 14 14 14 15 14 15 15 16 16 16 17 18 18 19 20 21 22 22 23 23 24 24 24 25 25 25 25 26 26 26 25
4 3 3 3 3 1 2 2 1 1 3 4 2 2 2 4 4 2 5 8 8 6 5 6 9 11 10 10 9 9 9 7 7 7 8 11 14 15 16 17 17 18 19 21 23 24 24 24 24 25 24 23 22 21 20 19 18 18 17 16 16 15 15 15 14 13 12 12 12 12 12 13 13 14 14 15 16 17 18 19 19 20 20 21 21 21 22 22 22 23 23 24 24 25 26 26 26
3 1 1 2 2 3 2 2 2 2 2 3 3 2 3 5 5 7 11 12 11 9 8 10 13 13 12 11 11 11 10 9 8 8 8 12 16 17 18 19 19 20 21 21 23 23 24 24 23 24 23 22 21 19 18 17 15 15 14 14 13 13 12 12 12 11 11 11 11 11 12 12 13 13 14 15 16 17 17 18 18 19 19 20 20 20 21 22 22 23 23 24 24 24 25 25 25
2 2 2 1 0 2 1 1 2 2 2 2 3 4 4 4 4 8 10 9 12 14 13 13 12 12 13 13 13 12 10 10 9 8 9 13 17 18 19 19 20 21 21 21 22 23 23 23 23 23 22 21 19 17 16 15 14 13 12 12 11 11 11 10 10 9 9 9 9 10 10 11 12 13 14 15 16 16 17 17 18 18 19 19 20 21 22 23 24 24 25 25 26 26 26 26 26
4 4 5 5 3 3 1 3 1 2 2 3 2 5 6 3 2 4 4 5 10 13 12 11 11 14 15 14 13 12 10 10 9 9 11 14 17 19 20 21 21 21 21 22 23 22 23 23 22 22 21 19 18 16 15 14 13 11 10 10 9 8 8 7 7 8 8 9 9 10 11 12 13 14 15 15 16 16 16 17 17 18 19 20 21 22 23 24 25 25 26 26 26 26 27 27 27
Wind_Direction
343 342 343 341 336 328 354 50 90 335 69 86 316 49 243 237 302 293 283 284 345 246 220 274 218 168 212 191 209 206 184 176 169 107 86 233 319 319 183 180 175 175 178 177 175 178 178 177 180 179 180 180 179 181 182 179 178 179 177 175 169 168 161 150 149 148 144 143 141 140 141 136 132 132 131 127 120 118 119 116 110 106 103 100 94 88 83 82 79 73 61 45 33 27 27 26 30
348 343 344 343 349 2 219 59 99 344 53 86 271 180 275 310 319 243 231 228 203 238 288 271 252 305 20 116 180 154 218 223 198 181 274 279 321 257 187 181 186 179 179 180 177 180 181 180 180 181 182 182 182 183 185 182 181 182 181 181 174 174 165 153 154 151 148 147 145 146 146 142 139 138 136 130 121 122 125 118 112 110 104 100 91 85 84 74 54 43 28 15 5 355 349 345 347
349 343 345 341 8 35 83 43 95 63 74 90 290 237 300 330 239 238 227 229 229 274 323 237 219 278 77 18 338 122 317 260 228 220 274 300 336 125 186 183 178 179 180 181 180 182 184 182 180 182 184 184 185 186 188 185 185 187 184 184 178 179 169 158 157 154 152 150 149 150 150 145 143 143 142 136 127 128 128 119 113 113 109 98 85 78 56 22 11 10 12 11 11 4 351 337 330
350 350 345 320 86 33 62 42 120 117 104 144 331 263 261 212 238 258 246 248 260 297 322 150 136 235 127 345 295 126 310 278 228 201 266 340 350 0 180 181 175 175 180 184 184 185 187 186 183 184 186 187 189 189 191 190 190 192 189 187 181 183 172 160 159 158 156 154 155 155 152 148 146 147 146 140 133 132 129 122 116 113 105 94 79 56 14 3 355 355 9 11 3 360 354 345 332
353 2 0 77 122 38 99 68 102 93 147 181 92 270 250 219 247 279 273 285 281 241 162 129 41 291 141 267 175 143 277 278 265 220 240 347 348 350 174 180 179 174 179 186 187 189 190 190 188 186 188 190 191 192 195 194 194 196 195 191 184 186 176 163 162 163 161 159 159 154 148 146 147 147 147 143 137 135 133 128 118 108 96 87 70 38 8 2 358 353 356 350 344 344 346 346 338
3 26 34 69 101 106 118 82 99 88 189 177 112 251 263 228 234 282 301 310 281 195 136 51 51 349 273 266 218 210 239 14 318 246 239 328 351 99 176 182 177 174 180 187 191 192 192 192 192 189 191 192 191 195 198 199 199 199 199 196 192 191 181 171 168 168 168 162 155 147 142 143 144 142 144 146 142 141 141 135 118 109 104 90 59 36 21 7 357 346 339 337 337 337 337 339 341
9 14 37 62 64 42 93 104 145 135 172 180 161 235 271 257 217 307 322 335 36 20 28 356 1 92 297 305 292 243 257 265 283 282 283 309 327 172 178 184 179 176 181 188 193 195 195 194 195 192 194 194 192 197 201 202 203 203 204 203 200 200 190 179 176 175 172 162 155 150 147 149 151 148 143 143 146 147 146 142 129 121 115 80 30 21 17 356 337 331 330 336 339 336 336 338 342
19 22 325 72 41 25 85 103 172 188 125 223 235 236 257 266 193 108 327 353 354 348 1 309 296 96 326 347 326 274 289 275 286 291 292 302 309 201 181 186 183 179 184 192 194 197 197 197 198 196 196 197 195 199 204 205 205 207 209 207 206 207 200 187 182 182 174 162 159 158 157 161 162 162 153 146 151 152 152 149 140 136 109 42 19 6 357 343 328 327 332 345 350 346 345 348 348
30 33 109 75 75 33 49 54 242 234 270 257 256 253 264 275 184 151 334 344 306 279 292 282 312 9 325 339 278 287 338 334 311 302 300 301 294 185 182 186 185 187 189 195 196 198 199 200 201 199 199 201 201 202 207 209 209 212 210 209 209 210 207 195 186 186 178 166 166 168 169 173 172 173 166 155 158 158 152 148 141 130 90 35 16 1 352 346 337 341 347 353 357 355 355 2 359
35 25 101 77 80 54 29 274 278 240 259 264 266 258 259 254 183 210 194 339 318 290 278 231 80 341 318 302 288 325 349 336 328 330 333 316 292 173 182 186 186 196 197 198 199 201 201 204 205 204 202 203 206 206 210 213 214 216 215 214 214 214 213 200 191 189 183 174 176 180 180 183 183 182 179 167 165 162 149 141 133 118 83 33 11 3 359 354 344 349 352 349 353 355 359 5 6
40 5 91 79 73 99 154 205 270 274 277 299 290 259 238 199 174 215 186 289 314 305 276 122 114 219 207 294 264 343 1 355 2 13 357 346 323 176 185 193 191 196 200 200 200 203 204 205 208 208 206 206 209 209 211 215 216 219 221 221 219 220 219 209 198 192 188 184 184 189 190 190 190 187 188 180 172 167 155 143 130 116 80 30 12 9 8 1 344 343 344 343 349 352 355 358 5
77 349 59 82 111 156 170 191 268 288 303 332 359 291 192 162 152 196 278 300 322 330 265 184 180 169 31 324 251 339 21 20 11 11 358 359 318 215 196 203 204 197 193 198 201 205 207 207 209 210 211 209 210 211 213 216 219 221 224 225 224 225 225 219 208 198 193 194 193 196 199 197 196 193 197 191 181 178 164 151 140 120 73 34 18 14 9 0 345 341 341 340 345 349 349 348 354
109 134 80 89 156 147 142 179 269 303 329 322 231 302 149 157 210 201 170 318 322 360 306 216 193 128 247 287 301 332 24 19 3 356 340 330 305 254 227 220 219 209 197 200 204 208 211 211 211 212 214 213 212 214 215 217 221 222 225 228 227 229 229 225 218 207 200 203 205 203 206 206 199 198 204 198 187 187 177 159 149 113 62 23 12 12 6 359 351 346 344 342 344 348 345 338 346
128 154 102 105 99 134 155 147 290 143 263 248 271 314 289 229 207 186 132 35 298 222 315 222 160 126 226 301 330 311 11 7 2 347 329 317 304 284 262 249 237 228 213 211 214 218 219 218 216 215 216 214 214 216 217 218 221 223 225 228 229 232 231 230 225 214 207 209 214 212 212 212 207 206 207 205 200 196 190 178 170 335 343 349 355 2 1 359 353 346 346 346 344 347 343 333 341
126 128 90 108 65 41 179 163 139 130 162 233 305 331 329 304 132 101 142 108 289 218 290 272 165 253 205 112 305 291 340 349 349 334 322 306 305 304 289 282 266 253 235 226 224 225 225 226 223 220 219 217 217 218 219 219 221 224 225 228 232 233 231 233 232 224 215 213 220 222 221 222 218 216 210 211 211 200 195 195 210 286 301 325 339 342 346 349 351 347 345 347 347 348 345 330 338
114 107 72 91 102 142 186 173 142 120 199 232 268 55 14 316 120 66 242 152 288 293 351 261 193 300 180 134 322 335 345 348 349 337 327 311 311 321 323 332 310 284 264 249 238 232 227 230 229 226 225 221 221 221 222 221 222 225 226 228 232 235 232 231 236 234 226 220 225 227 230 232 226 228 222 215 210 204 205 212 239 267 274 325 337 331 331 336 349 350 344 346 350 352 345 328 337
66 75 71 64 131 196 190 181 175 144 245 268 321 44 70 312 303 280 285 77 274 299 343 266 244 293 188 64 358 354 353 356 359 0 10 1 349 347 341 348 342 313 287 274 261 252 238 233 231 230 229 224 222 223 224 225 225 226 228 232 232 235 234 231 233 234 234 230 230 231 235 237 233 237 232 220 210 209 217 226 248 266 278 312 318 321 324 331 347 352 344 346 352 355 347 329 330
54 78 83 32 192 183 180 181 194 170 296 275 320 36 102 309 315 304 0 47 323 315 308 291 312 294 288 11 2 2 5 11 22 36 40 30 20 13 359 348 345 329 306 287 272 269 257 243 236 232 232 226 222 223 224 225 228 228 227 233 235 237 238 235 233 232 234 232 234 237 236 240 241 240 236 230 222 219 228 231 243 256 261 278 293 314 320 329 347 349 343 345 350 355 351 332 319
79 114 73 254 203 208 193 175 193 192 267 268 297 25 143 250 282 343 326 300 334 343 304 332 330 303 9 9 9 18 29 36 42 47 45 38 28 20 7 355 348 336 319 294 271 264 264 255 244 237 234 228 223 224 224 222 227 231 228 231 235 238 240 238 238 237 235 233 237 240 237 240 243 244 242 236 238 239 240 241 246 241 234 251 290 322 319 329 347 344 342 344 344 351 353 341 318
130 116 79 243 213 234 227 194 205 205 218 286 294 36 141 239 219 337 315 295 322 332 286 329 320 309 1 2 15 26 35 41 42 45 42 34 29 22 10 0 353 346 333 313 289 267 261 259 254 245 238 229 221 221 224 221 222 229 231 233 236 238 241 240 242 240 238 239 242 242 239 239 242 247 247 241 242 237 236 241 239 236 240 271 292 319 323 333 346 341 340 340 339 346 351 348 330
138 122 161 218 186 248 225 202 216 213 202 236 268 354 311 256 180 241 171 309 318 300 259 268 294 332 9 354 17 24 30 34 34 36 33 27 23 18 12 5 358 352 342 328 306 278 259 253 255 249 242 232 225 222 223 222 221 225 228 230 232 233 238 241 242 240 240 241 241 243 240 241 243 245 248 244 237 230 231 226 216 237 264 264 287 324 330 337 343 339 337 334 337 342 346 348 341
123 186 179 185 151 256 239 195 211 191 160 209 261 313 291 171 152 199 167 254 294 337 318 308 347 36 48 21 21 23 25 27 27 28 24 21 17 12 11 9 6 2 355 344 326 301 267 249 245 242 240 234 230 227 224 224 223 227 228 228 227 227 231 238 239 233 233 237 240 247 246 246 242 240 243 240 242 243 240 225 213 272 268 253 295 324 330 337 336 335 334 330 334 339 342 344 343
152 279 236 204 177 222 241 179 201 167 133 231 230 272 289 62 315 207 169 229 293 8 4 52 58 69 69 48 36 26 23 23 24 22 18 16 12 10 8 8 8 5 3 358 347 330 296 252 236 231 229 229 229 226 223 221 222 229 232 231 230 234 239 243 238 223 222 241 246 251 250 247 242 240 238 237 252 249 238 238 246 270 258 250 285 310 320 325 324 329 331 329 333 336 339 340 341
112 243 290 219 182 217 233 176 199 175 207 244 200 318 289 177 292 289 174 268 32 28 41 63 63 62 59 51 40 32 29 25 22 21 21 19 14 12 11 11 11 9 9 8 4 352 330 270 230 222 217 223 228 222 218 218 220 225 234 237 232 237 242 251 253 236 237 249 245 244 245 245 241 239 240 238 245 240 234 241 241 246 247 249 281 309 312 305 307 320 327 328 333 334 333 336 337
117 216 263 154 196 245 263 287 270 233 239 246 116 278 256 194 191 89 304 14 53 46 46 47 56 53 47 43 35 31 32 26 19 17 20 20 17 19 20 17 15 15 14 13 13 10 358 323 230 217 208 212 225 220 213 215 217 220 231 237 236 239 225 226 262 269 273 260 245 237 235 240 238 237 240 229 228 238 245 238 226 232 246 251 289 309 296 284 303 325 332 331 333 331 329 333 333
199 189 223 237 269 292 295 275 270 253 244 156 174 274 287 180 158 122 291 37 62 61 49 33 44 46 38 35 30 30 31 25 17 15 18 19 20 20 19 18 16 16 14 16 20 20 19 16 243 207 198 190 214 220 208 209 212 215 223 228 249 263 236 223 248 261 274 274 262 249 237 235 234 237 237 222 227 246 244 226 220 235 252 257 284 294 286 294 330 340 333 328 332 331 328 332 333
183 166 219 245 288 302 263 249 274 283 255 182 220 275 304 251 215 138 321 27 55 68 55 33 51 53 43 40 34 36 35 28 20 20 20 18 19 15 12 15 15 15 16 22 27 29 34 40 63 105 160 161 192 211 199 200 205 209 216 225 247 264 263 268 279 288 295 287 284 287 267 242 232 235 239 229 236 245 237 227 233 250 262 264 275 286 292 314 337 336 326 326 334 331 330 334 337
120 116 285 284 319 300 266 285 297 314 269 183 191 253 326 356 81 137 341 24 60 74 59 35 52 51 42 47 42 41 34 29 26 27 23 14 13 10 11 13 12 16 21 26 31 39 48 56 67 74 107 132 163 192 183 187 192 191 200 220 245 244 354 288 288 312 323 313 295 299 296 265 239 232 235 229 222 229 239 242 245 256 266 271 277 280 283 301 320 331 330 335 336 332 334 338 341
92 44 335 304 344 326 309 353 308 319 266 171 163 264 336 34 111 10 334 15 64 60 49 26 38 29 29 35 35 40 31 28 28 28 22 16 16 15 16 18 17 21 26 33 40 49 56 63 71 77 92 108 131 158 154 155 150 134 167 184 87 120 96 90 324 328 323 331 316 302 293 264 239 223 227 226 214 221 231 233 238 246 257 268 273 271 283 306 320 328 329 333 335 334 338 340 343
287 35 34 314 351 330 308 26 328 339 147 239 128 283 304 310 151 325 330 329 48 48 35 19 24 18 23 26 29 36 29 27 28 26 23 22 23 23 23 25 29 32 35 44 48 54 63 71 77 83 94 105 113 128 134 139 129 102 131 148 106 114 116 108 77 53 30 15 9 4 7 232 226 209 216 221 214 218 220 222 233 236 239 247 253 266 285 302 308 321 325 320 324 330 335 338 340
322 0 39 356 350 286 296 351 339 353 49 352 99 219 271 220 221 338 334 339 86 72 31 22 24 20 24 22 29 30 27 29 27 26 26 27 28 29 30 31 39 44 48 52 54 59 70 78 85 90 99 110 112 113 119 123 122 112 112 110 105 102 97 96 87 81 76 64 60 55 60 70 70 136 124 169 187 185 188 196 221 242 250 251 260 273 278 283 287 307 315 308 313 325 333 336 337
30 320 306 347 167 271 307 329 37 95 356 15 101 194 283 202 175 345 348 26 88 88 42 33 29 24 30 24 29 27 21 26 27 27 27 29 31 33 35 37 44 51 55 62 66 69 74 80 88 93 97 104 107 105 106 107 106 104 100 97 97 96 91 89 85 84 85 80 76 72 70 70 70 70 69 76 88 84 74 59 42 23 350 314 304 291 282 287 295 304 311 313 318 326 331 335 338
359 98 247 272 202 280 322 332 15 46 79 10 59 201 288 202 182 344 13 50 80 88 61 45 39 29 38 32 31 30 19 20 21 21 23 30 34 38 41 43 51 58 63 70 77 79 80 83 87 90 92 97 100 100 100 99 98 97 95 93 92 91 89 87 85 84 83 82 81 80 77 76 75 74 74 77 79 75 68 60 50 43 32 16 18 23 18 8 2 356 347 342 339 336 334 335 338
302 37 224 246 218 226 308 307 345 25 94 28 19 202 263 248 155 20 17 54 83 85 71 54 56 44 42 38 36 33 26 25 13 10 17 28 37 45 49 52 60 67 72 77 82 86 87 89 90 89 91 95 98 98 98 96 94 94 93 90 88 87 86 85 85 83 80 80 79 79 79 78 76 76 76 77 78 77 75 73 71 70 67 63 67 66 60 51 39 33 31 22 7 358 357 354 347
188 172 189 245 239 219 267 272 288 6 27 336 338 281 267 271 128 47 12 46 85 88 85 70 60 51 47 40 40 33 29 31 12 8 18 30 41 49 54 60 68 74 79 83 88 92 93 94 96 95 94 95 97 98 98 97 95 93 91 89 86 84 83 83 83 81 80 79 78 77 77 76 76 76 77 77 78 78 77 77 75 74 74 77 79 74 68 63 57 49 40 34 23 16 16 10 0
164 168 153 191 227 242 242 247 260 301 345 284 268 261 266 275 295 31 7 36 80 90 80 64 52 50 48 43 37 32 36 26 8 14 27 37 45 52 58 65 72 78 83 88 93 96 97 98 101 100 98 99 99 98 97 97 95 92 90 87 84 81 81 82 80 79 78 77 77 77 77 77 77 76 76 76 76 77 77 76 75 73 71 69 66 65 63 58 56 49 42 38 29 26 24 17 9
136 145 149 190 216 261 258 255 289 323 172 262 247 251 266 266 285 343 334 27 67 66 65 60 51 53 45 47 40 29 34 15 13 26 35 42 50 57 62 69 76 80 83 88 95 97 98 102 103 101 101 103 102 100 98 96 94 92 89 87 85 82 80 79 78 77 76 75 76 76 76 75 75 74 75 76 77 77 76 75 74 73 69 66 65 66 65 62 58 52 47 41 31 30 29 22 13
125 166 207 241 217 252 264 253 305 345 188 264 339 308 273 262 291 346 349 57 47 21 74 71 58 63 50 49 40 26 24 4 19 29 34 42 50 56 63 68 73 75 76 82 90 94 98 102 102 101 102 104 102 102 102 98 97 96 93 91 88 84 80 78 77 76 76 77 75 73 73 72 72 73 72 73 73 73 74 74 73 72 70 69 71 71 66 60 54 47 43 40 38 40 38 29 19
166 154 185 260 232 264 289 300 337 15 177 260 9 331 273 269 12 15 25 72 60 6 72 75 77 77 56 51 43 31 28 11 18 21 26 38 47 55 62 64 68 72 73 79 86 91 96 98 99 102 104 105 104 104 105 103 102 100 98 94 91 87 82 80 80 79 78 76 73 71 71 72 73 73 72 70 70 70 70 71 70 69 67 65 65 62 56 52 47 43 41 40 41 41 41 34 26
193 167 174 244 224 180 280 296 339 19 118 261 342 306 276 270 59 34 38 80 85 51 60 59 62 77 68 68 53 39 39 22 16 13 20 35 45 52 57 60 66 72 74 79 86 90 94 96 99 103 103 103 104 105 105 105 104 101 99 96 94 92 88 87 86 82 79 77 75 74 73 73 73 72 72 71 71 71 69 69 67 65 63 59 56 55 52 50 47 44 41 37 37 38 39 36 30
228 201 206 231 210 204 234 281 331 350 24 7 330 307 290 251 202 221 34 82 77 38 53 53 36 45 58 60 51 41 42 26 19 11 14 31 43 50 56 63 69 71 73 78 86 92 96 99 102 105 105 105 106 107 108 108 107 105 103 101 99 95 90 89 87 83 82 82 80 79 78 78 77 77 76 74 74 73 72 70 68 66 64 61 59 58 57 55 51 47 42 39 40 41 40 38 36
275 224 214 220 213 216 231 358 14 357 353 343 35 306 289 311 267 212 195 156 50 19 43 56 30 27 37 45 41 35 36 29 27 25 26 39 49 57 63 69 72 72 75 83 90 96 101 105 108 110 110 111 111 112 112 113 112 111 109 104 99 93 87 83 83 83 84 84 83 82 82 81 80 79 79 78 77 76 75 73 71 69 68 66 65 64 63 60 56 53 49 47 47 46 44 43 40
282 243 210 211 204 200 199 144 112 174 258 313 51 169 257 315 312 221 175 158 81 19 43 60 20 32 47 46 31 30 30 27 33 36 44 52 58 65 69 73 77 78 83 91 96 99 103 108 111 114 114 115 115 116 117 118 115 112 108 102 97 94 91 87 87 88 87 86 86 84 83 81 79 79 77 77 76 75 74 73 71 69 68 66 64 63 62 61 60 58 55 52 52 50 49 51 45
240 244 163 168 178 186 183 159 168 216 245 326 13 130 221 294 295 271 153 155 130 288 242 238 210 180 101 65 33 67 43 20 45 43 50 63 71 78 81 83 87 90 94 98 99 100 103 106 109 111 112 113 114 116 117 116 113 109 105 102 98 97 96 95 93 91 90 90 88 84 82 80 78 77 76 75 74 73 72 71 70 68 67 65 62 61 61 60 59 58 56 53 52 49 50 52 50
242 210 126 140 155 164 150 138 172 232 51 306 302 146 195 269 274 335 103 189 248 232 220 214 197 197 181 174 183 137 109 26 68 71 69 82 92 95 98 99 100 101 102 102 103 104 104 106 108 109 109 110 112 113 113 111 109 107 106 105 102 99 99 97 96 93 92 90 87 84 82 80 77 76 74 73 72 71 70 70 69 68 67 65 62 62 60 57 54 52 50 48 47 48 48 48 47
202 129 98 83 79 89 96 117 136 76 93 241 246 186 192 268 277 297 104 244 247 218 202 198 193 200 191 184 184 168 157 114 84 106 114 111 114 112 112 111 109 108 108 107 108 108 108 108 109 108 107 109 110 110 109 108 108 107 106 106 105 103 102 100 98 93 90 89 86 83 80 78 76 73 70 68 66 66 65 65 64 63 62 60 58 56 54 52 50 48 46 44 42 42 42 41 41
140 113 78 57 41 45 48 64 95 75 269 242 236 198 168 255 274 237 189 228 207 165 158 180 195 201 196 193 185 173 163 151 138 135 136 132 126 123 120 118 115 114 114 113 112 111 111 111 110 108 107 109 110 109 109 107 107 106 106 106 106 105 104 102 98 92 88 87 83 79 77 75 72 69 66 62 58 56 55 55 54 53 52 49 47 44 42 40 39 39 38 36 34 33 32 30 29
111 98 91 89 4 12 24 359 45 134 251 259 258 196 148 208 257 229 209 233 186 161 167 177 188 196 192 191 185 180 173 164 169 162 153 146 136 132 128 123 121 121 119 117 115 114 113 112 113 111 108 109 110 109 108 107 105 105 104 104 103 101 100 97 93 88 85 82 79 76 73 70 67 64 60 56 51 47 45 45 44 43 42 39 38 35 33 32 29 29 29 27 26 26 23 19 18
90 99 109 113 349 11 7 307 280 218 247 275 268 175 165 232 248 214 193 209 205 196 189 180 182 184 184 187 181 177 177 175 179 178 169 159 150 145 138 132 129 126 123 120 118 117 116 115 116 113 110 109 110 108 107 105 103 102 101 100 98 96 93 90 87 83 80 77 74 71 67 63 60 55 52 48 43 39 36 35 33 33 33 32 30 28 25 24 22 20 21 21 20 19 18 16 15
151 151 135 136 112 73 271 265 276 264 260 287 283 224 203 267 270 222 183 204 224 219 220 198 187 182 181 178 171 172 180 185 186 182 180 172 163 156 148 141 137 132 129 126 123 121 120 119 117 115 112 111 110 108 106 103 101 99 97 95 93 91 88 84 81 78 75 71 68 65 61 57 54 49 45 42 38 33 31 29 27 27 27 26 24 22 19 17 16 15 14 14 13 13 13 11 10
173 163 132 146 155 159 218 220 215 253 282 305 305 256 188 207 263 272 231 263 279 247 231 212 196 184 168 161 161 170 180 187 193 190 190 184 172 163 155 149 144 139 136 132 128 126 124 121 120 118 116 114 111 109 106 103 100 97 94 92 89 87 85 82 79 75 71 68 64 61 58 54 50 47 42 38 33 29 27 25 23 23 22 21 18 17 15 13 12 11 11 10 9 7 7 5 3
203 135 113 163 182 150 161 187 174 179 309 293 252 232 224 189 209 291 299 308 316 305 220 186 185 173 153 161 171 174 185 193 195 193 194 189 179 170 163 156 151 145 141 137 134 131 128 125 123 120 118 116 113 110 107 105 102 98 94 90 87 84 82 80 78 74 70 66 61 57 54 49 45 40 35 31 26 23 21 20 19 18 17 16 14 13 12 10 9 7 6 5 4 2 1 360 358
151 134 171 214 177 117 118 207 95 79 284 266 197 226 283 325 251 302 23 323 312 338 199 178 177 171 167 181 184 183 194 196 193 192 192 191 184 177 171 163 159 154 149 144 140 136 133 130 128 124 121 119 116 113 111 108 105 100 95 90 86 82 78 75 72 68 63 57 52 48 44 39 35 29 25 22 18 17 15 14 13 12 11 10 8 7 7 6 4 3 2 1 360 358 357 357 355
120 176 208 189 125 93 105 194 16 43 249 272 233 217 245 165 235 319 38 254 253 234 201 178 177 181 185 192 191 194 199 194 193 194 193 194 188 181 177 172 167 162 155 150 145 141 138 135 133 130 127 125 122 119 116 111 106 101 96 90 83 77 73 69 64 60 55 49 46 42 36 31 28 22 18 15 11 9 8 6 6 5 4 3 2 1 1 360 359 358 357 357 356 354 352 352 352
121 192 195 113 138 144 94 152 193 220 247 287 294 248 234 198 206 214 208 220 215 198 193 190 192 192 193 195 195 199 201 193 193 194 193 194 191 187 182 178 173 167 160 154 149 146 142 139 136 134 132 130 129 126 121 115 109 103 97 91 84 79 74 69 64 59 52 47 44 39 32 27 23 16 12 9 6 4 3 2 1 0 359 358 357 356 355 355 354 353 352 351 350 349 347 346 346
62 96 82 64 155 161 146 151 160 186 227 288 296 286 241 227 206 188 200 206 188 177 192 203 200 195 193 194 195 198 198 194 192 191 190 192 193 191 185 181 177 171 165 159 154 151 147 144 142 139 138 136 135 132 127 121 115 108 103 97 88 80 73 66 61 53 44 41 39 32 27 22 16 11 8 6 3 1 360 358 357 356 355 354 354 354 353 352 352 351 350 349 347 345 344 342 341
117 127 161 194 111 111 192 198 112 136 180 222 287 288 256 244 209 191 202 199 180 180 192 200 198 194 196 199 199 198 194 191 192 188 187 189 191 191 188 185 181 175 170 165 161 158 154 152 151 148 146 144 143 140 136 131 126 118 107 97 86 76 69 61 55 50 42 40 36 28 24 17 9 5 3 1 358 357 356 355 354 353 352 352 352 352 352 351 350 349 349 348 346 344 343 341 339
163 176 186 185 172 129 170 252 162 109 186 185 216 276 265 238 207 211 217 202 191 190 189 189 190 193 199 203 200 196 191 190 191 186 183 185 188 190 189 188 185 181 177 172 168 165 163 161 158 156 154 152 151 150 147 142 135 125 108 96 88 78 72 63 54 48 40 35 28 20 17 10 3 1 359 357 356 355 354 353 351 351 351 351 352 353 353 352 350 348 347 346 345 343 341 340 338